Wind_Speed
28 28 27 27 27 27 27 27 26 26 27 27 26 26 26 26 26 26 26 26 26 26 27 27 27 27 28 28 29 29 29 29 29 29 29 28 28 28 28 28 29 29 29
31 30 30 29 29 29 29 28 28 27 27 27 27 27 26 26 26 26 26 26 26 26 27 27 27 27 28 28 28 29 29 30 30 30 30 30 30 30 30 30 30 31 31
34 33 32 32 31 31 31 30 29 29 28 28 28 28 27 27 27 27 26 27 27 27 27 28 28 28 29 28 28 29 29 30 30 30 30 31 31 31 32 33 33 34 34
37 37 36 35 35 34 33 32 32 31 31 30 30 29 29 28 28 28 28 28 28 29 29 29 30 30 30 29 29 29 29 29 30 30 30 31 31 32 32 33 34 35 35
40 40 40 39 39 38 36 36 35 34 33 33 32 31 31 31 30 29 29 29 30 30 31 31 31 31 31 30 30 30 30 30 30 31 31 31 32 32 33 33 34 35 36
44 44 43 43 42 41 40 39 39 38 37 36 35 34 34 33 33 32 32 31 32 32 33 33 33 32 32 32 32 31 31 31 31 32 32 33 33 34 34 35 35 35 36
47 47 46 45 45 44 44 43 42 41 40 39 38 38 37 36 35 34 34 33 33 34 35 35 35 35 35 35 34 34 34 34 34 34 34 34 34 35 35 35 36 36 37
49 49 49 49 48 48 47 47 46 45 44 43 42 41 40 38 37 37 36 36 36 36 37 38 38 38 38 38 38 38 38 38 38 38 37 37 37 37 37 38 38 38 38
51 52 52 52 52 51 51 50 50 49 48 47 46 44 42 41 40 39 39 39 39 39 39 40 40 41 41 41 42 42 42 42 42 42 42 41 41 41 41 41 41 41 41
53 54 54 55 54 54 53 53 52 52 51 50 49 48 46 45 43 42 42 42 42 42 43 43 44 44 45 45 45 45 46 46 46 46 46 46 45 45 45 45 45 45 45
54 55 56 57 58 57 56 56 55 55 54 53 52 51 50 49 47 47 46 45 46 46 46 47 47 47 48 48 48 49 49 50 50 50 50 50 50 49 49 49 49 49 49
57 58 59 60 60 60 59 59 59 58 57 56 55 54 53 52 51 51 50 49 49 49 49 50 50 50 51 51 52 52 52 53 53 54 54 54 54 54 53 53 54 54 55
59 60 62 63 63 63 63 63 62 61 60 60 59 57 56 55 55 55 54 53 53 53 53 53 53 54 54 54 55 55 55 55 56 57 58 58 58 57 57 57 58 59 59
62 63 64 65 65 66 66 66 65 64 63 63 62 60 59 58 58 58 56 56 56 56 56 56 57 57 57 58 58 58 58 58 59 59 60 61 61 61 62 63 63 64 64
65 66 67 68 67 67 66 66 65 65 64 64 63 62 61 60 59 59 58 58 59 59 59 59 59 60 61 60 61 61 61 62 63 63 63 64 64 65 67 68 68 69 70
65 66 66 67 67 67 66 65 64 63 63 63 63 62 62 62 61 61 61 61 61 61 62 61 62 64 65 64 63 63 64 66 65 65 66 67 68 69 70 71 72 73 74
62 64 64 64 64 63 63 62 61 61 60 61 61 61 62 62 62 62 62 62 62 62 62 64 65 65 65 66 66 66 67 68 69 70 70 70 70 71 73 75 76 76 77
54 56 57 58 58 58 57 56 56 57 57 57 57 58 59 60 60 60 61 61 61 61 62 65 66 67 67 67 68 69 70 71 71 72 73 73 75 76 77 78 79 79 80
44 45 46 47 48 49 49 49 48 49 50 51 53 54 55 56 57 57 58 59 60 61 62 65 66 66 68 69 69 70 71 72 73 74 75 76 78 78 80 80 81 82 83
34 34 35 36 37 38 39 40 41 41 42 44 46 47 49 50 51 53 54 56 57 59 61 63 65 67 68 69 70 71 72 73 75 76 78 79 80 81 82 82 83 84 84
26 25 25 27 27 28 29 30 32 32 34 36 38 40 42 44 45 47 50 53 56 58 60 62 64 65 67 68 70 71 73 74 76 78 79 80 81 81 82 82 82 81 80
18 16 16 17 18 19 20 21 23 25 27 29 31 34 36 38 41 45 48 51 54 56 58 60 63 65 67 69 71 73 75 76 77 78 79 79 79 78 77 75 74 73 71
13 11 11 10 11 11 13 15 17 20 22 24 27 30 34 37 40 43 45 49 52 54 57 59 62 64 67 69 71 73 74 74 75 75 74 72 71 69 67 66 65 64 62
11 9 8 6 7 9 10 13 16 18 20 24 27 31 34 37 39 41 45 48 51 54 56 59 63 65 68 69 70 70 69 68 68 68 66 63 61 59 57 57 57 56 53
11 9 7 7 7 9 10 13 16 18 21 23 26 29 32 36 39 42 45 49 52 55 59 62 64 65 65 64 63 61 59 58 56 57 56 53 51 49 48 49 49 48 46
11 11 9 9 9 10 11 13 15 19 22 25 28 31 34 37 40 43 47 51 54 57 60 61 60 59 57 55 53 51 50 49 48 47 47 44 42 40 38 40 42 43 43
Wind_Direction
275 277 277 278 278 278 278 278 278 278 279 279 280 281 281 282 284 285 286 287 288 289 291 292 292 293 293 292 291 289 288 287 286 284 282 281 280 278 277 276 274 273 272
273 274 275 276 276 276 277 277 277 277 277 277 278 279 280 281 282 284 286 286 287 289 291 292 293 294 294 294 292 291 289 287 286 284 283 281 279 278 277 276 275 274 273
273 273 274 274 274 275 275 275 276 276 276 276 277 278 279 280 281 283 284 284 286 288 290 292 293 295 295 294 293 292 290 289 287 285 283 282 280 278 277 275 274 273 272
273 273 273 273 273 273 274 274 275 275 275 275 276 277 278 279 280 281 282 284 286 287 289 291 292 293 294 293 293 292 291 290 288 286 284 283 281 279 277 276 275 274 273
272 273 273 272 272 272 273 273 273 273 273 274 275 276 277 278 279 280 281 283 285 286 288 289 290 291 291 291 291 290 290 289 287 286 285 284 282 281 279 278 276 275 274
270 271 271 272 272 272 272 272 272 272 272 273 274 275 276 277 278 280 281 282 284 285 286 287 288 289 289 289 289 288 288 287 286 285 284 283 283 281 280 279 278 277 276
271 271 271 270 270 270 270 270 270 271 271 271 272 273 275 276 278 279 280 281 283 284 285 286 286 286 286 286 286 286 286 284 283 283 282 282 281 281 280 279 278 278 277
271 271 270 269 268 268 268 268 269 269 269 271 271 272 273 275 276 277 279 280 282 284 285 285 285 285 285 285 285 285 285 284 282 281 280 280 279 279 278 278 277 277 277
268 268 268 268 267 267 267 267 267 268 268 269 270 271 272 273 274 275 277 279 281 283 284 284 285 284 283 283 283 283 284 283 282 281 280 280 279 278 277 277 277 276 276
269 268 267 267 266 266 266 265 265 266 267 268 269 270 270 271 272 274 276 279 280 281 283 283 283 284 283 282 282 282 282 282 282 281 280 280 279 278 277 276 277 276 276
267 266 266 265 265 264 264 264 263 264 265 266 267 268 269 271 272 273 275 277 279 281 283 283 283 283 283 282 282 282 282 282 281 280 279 279 279 278 277 277 277 277 276
267 266 265 264 263 262 262 261 261 262 262 263 264 266 268 270 272 273 274 276 278 280 282 283 282 284 284 282 282 281 281 281 280 279 278 279 278 277 277 277 277 277 277
268 267 265 263 262 261 260 260 259 259 260 261 262 264 265 267 269 272 273 276 278 280 281 283 282 283 282 282 282 280 280 280 280 278 278 278 278 277 277 277 278 278 278
270 268 266 264 262 261 260 260 259 259 259 260 261 262 263 265 268 270 273 275 278 279 281 282 281 281 281 282 282 281 280 280 280 279 278 279 278 277 277 278 278 278 279
272 269 267 265 263 261 260 259 259 259 259 259 260 261 263 265 267 269 271 273 276 277 279 280 281 282 282 282 283 282 282 283 282 280 280 280 279 279 279 280 279 279 280
272 270 268 266 264 262 260 259 258 258 258 259 260 261 263 264 266 268 271 273 276 277 278 280 281 281 281 282 283 283 283 284 284 283 282 282 281 281 281 281 281 281 280
274 271 268 267 265 262 260 259 258 257 257 258 259 261 262 264 267 269 271 273 274 275 277 279 280 281 281 281 281 283 283 284 284 284 284 284 283 283 282 282 282 282 281
278 273 269 267 265 262 261 259 258 256 256 257 258 260 262 264 266 268 270 272 273 274 276 278 279 280 282 283 284 284 285 286 285 285 285 285 284 285 285 284 283 283 282
281 276 271 267 265 263 261 259 257 256 255 256 258 259 261 264 266 269 271 272 273 274 276 278 280 282 283 284 285 285 286 287 287 287 287 287 287 286 286 285 284 283 282
286 279 273 268 264 262 260 258 255 254 254 255 257 259 261 264 267 269 271 273 274 276 278 279 281 282 284 285 286 287 287 288 289 289 289 288 288 287 287 286 285 284 283
292 283 274 269 265 260 257 255 254 253 254 255 258 260 263 266 269 272 274 275 276 277 279 281 283 284 286 287 288 289 290 290 290 289 289 289 289 288 288 287 286 285 284
302 291 283 274 267 258 249 248 251 252 255 258 261 264 267 270 272 273 275 277 279 281 283 284 286 288 289 290 291 291 291 291 290 289 290 290 290 290 289 288 287 287 287
311 301 292 280 270 265 254 251 256 258 259 262 265 267 268 271 274 277 280 282 284 286 288 290 291 292 293 293 293 292 292 291 291 290 290 291 291 291 290 290 289 289 290
328 317 311 299 279 267 262 257 262 268 270 271 271 273 276 278 281 284 286 289 291 293 294 295 296 296 295 295 294 293 292 292 292 292 292 293 292 292 292 291 291 292 293
342 335 321 312 297 285 278 273 273 275 278 280 282 284 287 289 291 292 294 296 298 299 299 299 298 298 297 296 295 295 295 295 295 295 296 297 295 294 293 293 293 295 297
342 339 337 325 315 306 297 291 288 288 288 289 292 294 297 298 298 299 300 300 301 301 301 301 301 300 299 298 298 298 298 298 298 298 299 300 298 297 295 295 296 298 301
Height
5836 5836 5835 5835 5834 5833 5832 5832 5831 5830 5829 5828 5827 5826 5826 5825 5824 5823 5822 5821 5820 5818 5817 5815 5814 5813 5811 5810 5808 5807 5806 5805 5804 5804 5803 5802 5802 5801 5801 5801 5801 5801 5801
5830 5830 5830 5829 5829 5828 5827 5826 5825 5824 5823 5823 5822 5821 5820 5819 5818 5817 5816 5815 5814 5813 5812 5810 5809 5807 5806 5804 5802 5801 5800 5799 5798 5797 5797 5796 5796 5795 5795 5795 5795 5794 5795
5825 5824 5824 5823 5822 5821 5821 5820 5819 5818 5817 5817 5816 5815 5814 5813 5812 5811 5810 5809 5808 5807 5806 5804 5803 5801 5800 5798 5797 5795 5794 5793 5792 5791 5790 5789 5789 5788 5788 5788 5788 5787 5788
5818 5817 5817 5816 5815 5815 5814 5814 5813 5812 5811 5810 5810 5809 5808 5807 5806 5805 5804 5803 5802 5801 5800 5798 5797 5796 5794 5792 5791 5790 5788 5787 5785 5784 5783 5782 5782 5781 5780 5780 5780 5780 5780
5810 5810 5809 5809 5808 5808 5807 5807 5806 5805 5804 5804 5803 5802 5801 5801 5800 5799 5798 5797 5795 5794 5793 5792 5790 5789 5788 5786 5785 5783 5782 5780 5779 5778 5776 5775 5774 5773 5773 5772 5772 5771 5771
5802 5801 5801 5801 5800 5800 5800 5799 5798 5797 5797 5796 5796 5795 5794 5794 5793 5792 5791 5790 5789 5787 5786 5785 5783 5782 5780 5779 5777 5776 5775 5773 5772 5771 5769 5768 5767 5765 5764 5764 5763 5762 5762
5793 5792 5792 5792 5791 5791 5790 5789 5789 5789 5788 5788 5787 5787 5786 5786 5785 5784 5783 5782 5781 5780 5778 5777 5775 5774 5772 5771 5770 5768 5767 5765 5764 5763 5761 5760 5758 5757 5756 5755 5754 5753 5753
5782 5782 5781 5781 5781 5780 5780 5780 5779 5779 5779 5779 5778 5777 5778 5778 5777 5776 5775 5774 5773 5771 5770 5768 5767 5765 5764 5762 5761 5759 5758 5756 5755 5753 5752 5751 5749 5748 5747 5745 5744 5743 5743
5770 5770 5770 5769 5769 5769 5769 5769 5768 5768 5768 5768 5767 5768 5768 5769 5768 5767 5766 5765 5764 5763 5761 5759 5758 5756 5754 5753 5751 5750 5748 5746 5745 5743 5742 5740 5739 5738 5737 5735 5734 5733 5732
5759 5758 5757 5756 5756 5756 5757 5757 5757 5757 5756 5757 5757 5757 5758 5758 5758 5757 5756 5755 5754 5752 5751 5749 5747 5745 5743 5742 5740 5739 5737 5735 5733 5732 5730 5729 5727 5726 5725 5723 5722 5721 5720
5747 5746 5744 5743 5743 5743 5744 5744 5744 5744 5744 5745 5745 5745 5745 5745 5746 5746 5746 5745 5743 5741 5740 5738 5736 5734 5732 5730 5729 5727 5725 5723 5721 5719 5717 5716 5714 5713 5712 5710 5709 5708 5707
5733 5732 5731 5729 5729 5729 5730 5730 5730 5731 5732 5732 5732 5733 5733 5734 5734 5734 5733 5733 5731 5730 5728 5726 5724 5722 5720 5717 5716 5714 5712 5710 5707 5705 5703 5701 5700 5699 5697 5696 5695 5694 5692
5718 5717 5715 5714 5714 5714 5714 5714 5715 5717 5718 5718 5719 5721 5721 5722 5722 5721 5721 5720 5719 5718 5716 5714 5711 5709 5706 5703 5702 5700 5698 5695 5693 5690 5688 5686 5684 5683 5681 5680 5678 5677 5676
5701 5699 5697 5696 5696 5697 5697 5698 5700 5702 5703 5704 5706 5707 5708 5709 5709 5709 5709 5707 5706 5704 5702 5700 5698 5695 5692 5689 5687 5685 5682 5679 5677 5674 5672 5670 5668 5666 5664 5662 5661 5659 5657
5680 5678 5677 5677 5677 5678 5679 5681 5683 5686 5688 5690 5692 5693 5695 5696 5696 5696 5696 5695 5693 5691 5689 5687 5683 5680 5676 5673 5671 5668 5666 5663 5660 5658 5655 5652 5650 5648 5645 5644 5641 5639 5637
5659 5657 5656 5656 5656 5658 5660 5663 5666 5669 5672 5675 5677 5679 5681 5682 5683 5683 5682 5681 5680 5677 5674 5672 5668 5665 5661 5657 5654 5652 5649 5646 5643 5640 5636 5633 5631 5628 5625 5623 5620 5618 5615
5639 5636 5635 5635 5636 5639 5642 5645 5649 5653 5656 5660 5663 5665 5667 5668 5669 5669 5668 5667 5665 5662 5659 5657 5653 5649 5645 5642 5638 5635 5631 5628 5625 5621 5616 5613 5609 5606 5603 5600 5597 5594 5591
5621 5618 5617 5617 5618 5621 5625 5629 5633 5637 5641 5645 5648 5650 5653 5654 5655 5655 5654 5652 5650 5648 5645 5641 5638 5633 5629 5625 5621 5617 5613 5609 5605 5600 5595 5591 5588 5584 5580 5576 5573 5569 5565
5606 5603 5602 5602 5604 5607 5610 5615 5619 5623 5628 5631 5634 5637 5639 5640 5641 5640 5640 5638 5636 5633 5630 5626 5622 5617 5613 5608 5604 5599 5595 5589 5584 5579 5573 5569 5564 5559 5555 5550 5546 5542 5538
5596 5593 5591 5592 5593 5596 5599 5603 5607 5611 5616 5620 5622 5625 5626 5627 5628 5627 5626 5624 5622 5618 5615 5611 5606 5601 5596 5591 5586 5581 5576 5569 5563 5557 5550 5545 5539 5534 5528 5523 5518 5514 5509
5590 5586 5585 5585 5586 5588 5591 5594 5599 5603 5606 5609 5612 5614 5615 5615 5615 5614 5613 5611 5608 5604 5600 5595 5590 5585 5579 5573 5568 5562 5556 5549 5542 5534 5528 5521 5514 5508 5502 5495 5490 5484 5480
5587 5583 5581 5581 5582 5583 5585 5588 5592 5595 5599 5601 5603 5604 5605 5605 5604 5603 5601 5597 5594 5589 5585 5580 5575 5568 5562 5555 5549 5542 5535 5528 5520 5512 5506 5498 5489 5483 5475 5469 5463 5458 5454
5585 5582 5580 5580 5581 5581 5583 5585 5588 5590 5592 5594 5595 5595 5595 5595 5593 5591 5588 5584 5580 5575 5570 5565 5558 5551 5544 5537 5530 5521 5513 5506 5497 5488 5483 5478 5467 5461 5453 5446 5440 5436 5433
5585 5582 5581 5580 5581 5581 5582 5583 5585 5586 5587 5588 5588 5588 5587 5585 5582 5579 5575 5571 5565 5560 5555 5549 5542 5534 5525 5517 5509 5501 5493 5485 5476 5466 5461 5458 5449 5443 5435 5427 5421 5418 5415
5587 5584 5582 5581 5581 5580 5581 5581 5582 5583 5582 5582 5581 5580 5578 5575 5572 5568 5563 5558 5552 5545 5538 5531 5523 5514 5506 5497 5489 5482 5474 5467 5460 5450 5443 5440 5433 5428 5421 5413 5406 5402 5399
5588 5585 5583 5582 5581 5580 5580 5580 5579 5578 5577 5576 5574 5572 5568 5565 5561 5556 5550 5544 5537 5529 5521 5513 5505 5496 5488 5480 5473 5466 5459 5452 5445 5439 5431 5426 5419 5414 5412 5403 5395 5390 5386